Location: Cuzcurrita-R�o Tir�n
(42.5415°N, 2.9642°W)
Time: 01:21:39
(UTC+00:00)

Cosmos 972 Rocket - Pass Details

Date: 17 January 2021
Orbit: 713 x 1151 km, 75.8° (Epoch: 08 March)

Event Time Altitude Azimuth Distance (km) Brightness Sun altitude
Rises 17:28:28 0° 341° (NNW) 3,252 7.2 -4.5°
Reaches altitude 10° 17:30:54 10° 339° (NNW) 2,278 6.4 -4.9°
Maximum altitude 17:35:58 76° 255° (WSW) 747 4.2 -5.7°
Drops below altitude 10° 17:40:48 10° 170° (S) 2,185 6.5 -6.6°
Sets 17:43:06 0° 169° (S) 3,107 7.3 -6.9°
